Weather Roundup
Issued by NWS Springfield, MO

Home | Current Version | Previous Version | Text Only | Print | Product List | Glossary On
Versions: 1 2 3 4 5 6 7 8 9 10 11 12 13 14 15 16 17 18 19 20 21 22 23 24 25 26 27 28 29 30 31 32 33 34 35 36 37 38 39 40 41 42 43 44 45 46 47 48 49 50
000
NZUS99 KSGF 301459
HRRSGF

HOURLY WEATHER
NATIONAL WEATHER SERVICE SPRINGFIELD MO
1000 AM CDT TUE JUN 30 2015

......SGF CWA......

CITY           SKY/WX    TMP DP  RH WIND       PRES   REMARKS
SPRINGFIELD    MOSUNNY   78  64  61 W9        30.00S
JOPLIN         MOSUNNY   77  67  71 W5        30.00S
WEST PLAINS    SUNNY     74  65  73 W8        30.00S
ROLLA          SUNNY     73  68  84 SW7       29.95S
OSAGE BEACH      N/A     75  64  69 W6        29.93F
BRANSON        CLOUDY    75  66  73 CALM      30.03R

......SURROUNDING SGF CWA......

CITY           SKY/WX    TMP DP  RH WIND       PRES   REMARKS
CHANUTE        SUNNY     79  66  64 NW3       29.99S
PARSONS        SUNNY     78  69  73 CALM      29.99F
COFFEYVILLE    SUNNY     79  68  69 SW5       29.98S
EMPORIA        SUNNY     82  65  56 W6        29.98S
SILOAM SPRINGS MOSUNNY   79  64  61 W6        30.03S
HARRISON AR    SUNNY     77  67  71 W5        30.03R
NEAR YELLVILLE SUNNY     75  64  69 W3        29.98S

......KANSAS AND MISSOURI......

CITY           SKY/WX    TMP DP  RH WIND       PRES   REMARKS
KANSAS CTY INT PTSUNNY   78  65  63 NW8       29.95F
DOWNTOWN KC    SUNNY     81  66  60 NW5       29.93F
COLUMBIA       SUNNY     74  68  81 SW6       29.94R
SEDALIA        MOSUNNY   79  65  62 W7        29.95S
ST JOSEPH      SUNNY     78  67  68 CALM      29.95S
ST LOUIS       MOSUNNY   78  66  66 W8        29.92R
SPIRIT OF STL  CLOUDY    75  69  81 W8        29.91R
KIRKSVILLE     SUNNY     73  64  73 W9        29.92S
WICHITA        MOSUNNY   84  64  50 VRB3      30.00S
TOPEKA         SUNNY     77  64  64 W5        29.96S
OLATHE         SUNNY     79  63  57 NW5       29.96S

......TENNESSEE......

CITY           SKY/WX    TMP DP  RH WIND       PRES   REMARKS
MEMPHIS        PTSUNNY   80  73  79 SW8       29.99R
NASHVILLE      CLOUDY    79  72  79 SW5       29.96R

......ARKANSAS.......

CITY           SKY/WX    TMP DP  RH WIND       PRES   REMARKS
FAYETTEVILLE   MOSUNNY   77  69  76 SW6       30.04R
FT SMITH       SUNNY     81  67  62 W6        30.00F
LITTLE ROCK    MOSUNNY   85  68  56 N3        29.98R

......OKLAHOMA.......

CITY           SKY/WX    TMP DP  RH WIND       PRES   REMARKS
TULSA          PTSUNNY   84  67  56 W9        29.99S
PONCA CITY     SUNNY     82  64  54 W7        30.00S
MCALESTER      MOSUNNY   80  68  66 VRB3      30.04R
OKLAHOMA CITY  MOSUNNY   81  64  56 W7        30.04S

......IOWA............

CITY           SKY/WX    TMP DP  RH WIND       PRES   REMARKS
DES MOINES     CLOUDY    73  65  75 N7        29.91F
QUAD CITIES    SUNNY     74  60  61 N8        29.86S

......ILLINOIS........

CITY           SKY/WX    TMP DP  RH WIND       PRES   REMARKS
QUINCY         SUNNY     75  65  70 W9        29.89S
CHICAGO        MOSUNNY   69  60  73 W7        29.81F



USA.gov is the U.S. government's official web portal to all federal, state and local government web resources and services.